Vorticity
nan nan nan nan nan nan nan nan nan nan nan nan nan nan nan nan nan nan nan nan nan nan nan nan nan nan nan nan nan nan nan nan nan nan nan nan nan nan nan nan nan nan nan nan nan nan nan nan nan
nan 4 5 6 8 5 6 8 7 3 -2 8 10 6 10 4 1 6 11 11 9 7 8 8 6 5 5 5 5 5 5 5 5 6 5 5 5 5 5 5 5 5 4 5 4 4 4 4 nan
nan 4 9 4 5 4 5 9 8 4 5 9 7 7 7 8 7 7 14 13 8 7 7 9 7 5 5 4 4 5 5 5 5 5 5 5 5 5 5 5 5 5 5 4 4 4 4 4 nan
nan 6 6 9 4 3 0 3 3 1 11 8 6 5 6 7 11 15 13 6 6 8 7 8 7 5 5 5 4 5 5 5 5 5 5 5 5 5 5 5 5 5 4 4 4 4 4 3 nan
nan 8 6 4 6 6 4 1 -1 5 7 9 8 6 5 6 10 16 10 5 6 7 7 8 6 5 5 6 6 5 5 5 5 5 5 5 5 5 5 5 5 5 4 4 4 4 4 3 nan
nan 6 9 6 6 4 3 5 6 7 9 14 9 8 6 8 10 9 8 5 6 8 7 9 8 5 5 6 5 6 6 6 6 6 5 5 5 5 5 5 5 5 5 4 4 4 4 4 nan
nan 8 6 8 6 5 12 10 9 6 9 10 9 5 7 8 10 11 8 6 7 8 8 9 8 7 5 6 7 6 6 6 6 5 6 6 6 5 5 5 5 5 4 4 5 5 4 5 nan
nan 6 7 7 7 5 12 9 16 14 -1 4 10 6 7 13 12 8 7 5 6 7 8 7 8 8 6 7 7 6 6 6 6 6 6 6 6 5 5 5 6 5 4 5 5 5 5 6 nan
nan 6 7 9 5 4 1 6 5 8 8 8 8 7 10 14 8 5 5 4 4 5 7 7 8 7 8 7 8 8 8 6 6 7 6 4 6 8 6 6 7 5 5 5 5 5 6 7 nan
nan 3 5 7 5 3 1 1 3 6 6 4 5 6 3 1 3 3 4 5 6 6 8 7 8 7 6 7 10 9 8 9 9 8 7 5 7 7 8 9 7 6 6 7 7 6 7 6 nan
nan 6 4 3 8 5 2 2 2 2 2 6 -1 -6 -4 1 3 3 4 5 9 11 9 9 7 9 7 6 6 7 9 9 11 10 7 6 7 7 7 7 9 10 8 8 9 7 6 6 nan
nan 7 5 1 7 9 7 1 4 1 1 -0 -2 0 4 4 1 5 6 6 12 13 8 11 10 7 7 6 7 6 6 6 8 11 7 4 7 8 6 7 7 7 9 8 6 7 8 7 nan
nan 4 5 6 2 0 6 4 5 3 9 3 5 5 7 8 7 5 6 6 10 8 8 10 12 9 9 5 5 8 8 7 8 10 8 5 6 7 7 6 7 7 7 7 7 7 8 8 nan
nan 10 6 10 6 7 8 4 2 11 5 2 3 8 7 4 5 6 6 8 7 6 7 11 11 11 8 7 6 6 8 9 8 8 10 7 5 7 7 7 6 6 7 7 8 9 9 8 nan
nan 12 11 11 10 9 9 9 5 5 2 3 3 4 6 7 7 8 7 9 8 8 10 9 10 12 9 7 7 7 8 9 8 9 11 9 6 7 6 6 6 6 8 9 8 6 7 8 nan
nan 11 8 6 6 12 8 1 9 6 11 9 10 10 10 9 10 11 10 9 8 8 8 7 11 10 8 7 8 8 8 9 8 9 12 12 9 6 4 7 7 5 6 8 7 8 7 8 nan
nan 10 8 9 10 6 2 2 11 9 12 13 11 9 8 9 9 10 8 8 8 8 6 9 12 11 9 9 9 10 9 8 9 10 12 13 9 6 5 6 8 7 5 7 8 7 7 8 nan
nan 11 7 12 16 11 2 4 5 6 4 7 6 4 4 5 6 8 10 8 7 8 9 9 10 14 11 11 11 10 10 10 10 10 12 11 9 8 6 7 10 9 6 6 7 8 7 6 nan
nan 9 18 14 12 17 8 9 8 4 4 5 5 6 6 5 7 8 8 8 8 7 9 8 9 13 11 10 10 11 11 9 10 12 12 7 8 10 8 7 10 9 8 9 6 8 9 7 nan
nan -1 6 11 9 11 12 8 8 9 9 8 7 8 7 7 8 8 7 8 8 8 6 9 9 11 10 7 8 13 15 11 11 11 11 10 10 9 9 8 8 9 8 8 10 7 7 8 nan
nan 14 5 -1 5 7 14 15 15 12 9 9 9 8 9 9 7 8 9 9 9 9 9 8 11 13 11 9 6 7 7 11 11 9 11 13 12 11 10 8 9 8 8 9 9 9 6 6 nan
nan 12 15 10 5 8 3 13 15 12 8 10 10 11 9 9 10 7 6 8 8 8 9 9 12 15 15 11 7 4 3 7 10 11 11 14 13 10 10 10 10 7 6 10 9 9 7 8 nan
nan 6 4 9 11 11 2 8 7 7 6 7 7 9 12 10 8 9 10 11 8 9 9 13 15 15 14 10 8 7 7 9 12 13 11 9 11 12 10 10 8 6 7 9 9 8 7 7 nan
nan 16 9 4 9 9 15 6 7 18 13 14 12 9 10 13 15 13 11 12 12 11 12 15 14 14 13 12 10 9 10 9 11 11 8 9 9 9 11 9 8 8 9 9 9 9 8 8 nan
nan 11 12 12 10 3 15 13 10 3 11 17 13 9 12 14 14 12 12 13 13 12 13 14 15 13 11 11 11 11 11 10 10 8 7 8 8 10 10 8 8 8 8 9 9 9 9 9 nan
nan 8 4 11 9 13 8 0 7 1 2 7 11 11 11 12 11 13 16 14 14 14 14 14 14 12 11 10 10 12 10 9 10 9 8 8 9 10 10 8 8 8 8 8 8 8 9 10 nan
nan 12 4 5 17 20 10 1 5 13 9 9 11 11 10 12 15 23 19 13 14 13 13 13 11 11 11 10 9 10 10 10 9 9 10 10 10 10 9 8 8 9 9 8 7 8 9 9 nan
nan 12 17 6 7 13 11 15 14 18 15 7 5 9 12 18 24 21 14 13 12 11 12 12 11 11 10 9 9 10 10 10 10 9 10 9 8 10 9 9 9 8 8 9 8 8 10 10 nan
nan 15 6 9 4 4 10 14 14 12 7 4 4 8 13 19 23 16 12 11 11 11 10 10 10 9 9 9 10 10 10 10 10 9 9 8 9 10 10 9 8 8 9 9 9 9 12 11 nan
nan nan nan nan nan nan nan nan nan nan nan nan nan nan nan nan nan nan nan nan nan nan nan nan nan nan nan nan nan nan nan nan nan nan nan nan nan nan nan nan nan nan nan nan nan nan nan nan nan
CAPE
0 0 0 0 0 0 0 0 0 0 0 0 0 0 0 0 0 4 0 30 68 102 661 1106 1428 1264 1130 843 631 575 507 436 348 271 179 62 46 6 0 0 0 0 0 0 0 0 0 0 0
0 0 0 0 0 0 0 0 0 0 0 0 0 0 0 1 0 0 5 66 75 380 871 412 1503 1302 1196 942 666 516 342 245 193 127 68 25 41 20 0 0 0 0 0 0 0 0 0 0 0
0 0 0 0 0 0 0 0 0 0 0 0 0 0 0 0 0 2 5 100 81 470 571 692 1649 1439 1285 1039 786 562 361 244 144 100 81 65 41 28 17 0 0 0 0 0 0 0 0 0 9
0 0 0 0 0 0 0 0 0 0 0 0 0 0 0 0 1 5 76 140 180 340 385 674 1657 1504 1373 1107 902 672 420 280 183 140 115 111 79 56 44 28 5 0 0 5 11 21 32 27 35
0 0 0 0 0 0 0 0 0 0 0 0 0 0 0 0 70 210 179 216 243 290 352 374 1708 1527 1477 1340 1103 768 514 341 241 203 186 167 148 149 95 64 2 2 21 30 56 84 102 149 206
0 0 0 0 0 0 0 0 0 0 0 0 0 0 0 0 164 282 232 332 294 373 495 320 1489 1562 1469 1453 1275 934 593 441 369 298 286 263 235 202 160 144 79 54 87 138 200 282 296 341 503
0 0 0 0 0 0 0 0 0 0 0 0 0 0 0 0 76 278 268 284 296 356 416 354 611 1157 1453 1435 1297 1049 754 688 534 409 342 346 360 287 260 253 258 287 366 444 495 455 473 668 705
0 0 0 0 0 0 0 0 0 0 0 0 0 0 0 0 200 297 269 237 180 281 306 225 388 700 510 556 1475 1260 1015 878 685 610 550 470 477 391 351 294 377 436 514 567 721 659 799 915 739
0 0 0 0 0 0 0 0 0 0 0 0 0 0 0 0 159 250 282 320 282 163 239 281 243 683 595 338 587 1355 1156 1024 828 718 686 415 130 155 157 210 497 675 766 863 871 909 1136 1065 708
0 0 0 0 0 0 0 0 0 0 0 0 0 0 0 0 0 0 21 80 248 400 304 156 301 477 683 277 551 784 542 302 483 316 374 291 262 251 160 281 605 861 933 891 991 1164 1156 920 455
0 0 0 0 0 0 0 0 0 0 0 0 0 0 0 0 0 0 0 0 0 17 368 248 238 415 619 541 563 568 859 768 782 487 630 747 457 381 314 280 414 402 761 733 1049 1155 1011 793 611
0 0 0 0 0 0 0 0 0 0 0 0 0 0 0 0 0 0 0 0 0 0 0 204 335 341 714 604 456 402 552 603 488 452 752 847 532 440 466 301 323 524 350 757 1111 1166 1256 1222 830
0 0 0 0 0 0 0 0 0 0 0 0 0 0 0 0 0 0 0 0 0 0 0 0 178 465 573 764 451 515 642 501 417 315 598 799 438 610 490 417 334 423 452 545 1080 1206 1347 1292 1017
0 0 0 0 0 0 0 0 0 0 0 0 0 0 0 0 0 0 0 0 0 0 0 0 5 677 597 655 950 798 686 612 412 386 620 826 589 753 435 489 380 460 346 328 872 1226 1248 1215 841
0 0 0 0 0 0 0 0 0 0 0 0 0 0 0 0 0 0 0 0 0 0 0 27 0 116 896 1120 918 749 425 405 479 357 535 522 726 570 602 403 544 497 500 853 1028 1078 955 917 823
0 0 0 0 0 0 0 0 0 0 0 0 0 0 0 0 0 0 0 0 0 0 0 0 0 17 1129 1207 896 661 590 350 377 398 387 523 665 557 480 390 458 594 653 438 559 857 742 918 946
0 0 0 0 0 0 0 0 0 0 0 0 0 0 0 0 0 0 0 0 0 0 0 0 0 0 576 962 826 866 602 413 438 461 473 570 606 505 540 532 639 553 372 383 765 916 939 1051 1080
0 0 0 0 0 0 0 0 0 0 0 0 0 0 0 0 0 0 0 0 0 0 0 0 0 0 37 349 796 708 622 493 503 561 609 636 626 576 714 568 411 433 413 477 813 1028 929 989 1204
0 0 0 0 0 0 0 0 0 0 0 0 0 0 0 0 0 0 0 0 0 0 0 78 0 0 0 278 488 662 763 818 711 689 773 723 815 804 734 574 731 522 447 876 1054 1132 1120 1053 529
0 0 0 0 0 0 0 0 0 0 0 0 0 0 0 0 0 0 0 0 0 0 0 14 0 0 110 398 682 795 955 739 711 677 963 1017 969 925 812 697 671 872 597 1294 1099 1099 531 423 166
0 0 0 0 0 0 0 0 0 0 0 0 0 0 0 0 0 0 0 0 0 0 0 0 0 0 294 710 858 945 798 387 639 828 643 831 878 988 865 836 751 765 1103 1203 1304 943 512 937 31
5 0 0 0 0 0 0 0 0 0 0 0 0 0 0 0 0 0 0 0 0 0 0 0 0 0 226 918 971 1101 1225 870 918 657 726 667 1074 990 778 809 848 1135 975 588 839 971 482 635 470
2 2 0 0 0 0 0 0 0 0 0 0 0 0 0 0 0 0 0 0 0 0 0 0 0 171 352 835 1075 1315 1280 1257 1267 1200 1038 1061 1285 1096 865 1002 1223 1178 455 609 1076 794 561 409 338
0 0 0 0 2 2 0 0 0 0 0 0 0 0 0 0 0 0 0 0 0 0 59 214 382 706 696 841 1103 1353 1337 1109 1224 1366 1382 1309 1191 1117 1020 1005 1066 1070 617 809 593 617 609 417 343
0 21 15 12 16 0 0 0 0 0 0 0 0 0 0 0 0 0 0 0 0 145 527 309 798 917 974 1054 1075 1157 1257 1324 1468 1463 1142 915 928 941 929 998 931 732 709 614 542 571 524 572 415
0 1 34 0 0 0 0 0 0 0 0 0 0 0 0 0 0 0 0 0 219 663 576 561 1181 1072 1020 952 871 911 1124 1262 1317 1145 1137 851 800 913 914 817 693 554 476 369 469 467 560 546 533
20 21 0 0 0 0 0 0 0 0 0 0 0 0 0 0 0 0 2 430 774 752 698 1402 1283 1094 963 763 713 829 898 989 878 905 900 725 804 762 659 609 595 503 417 437 567 514 719 659 130
15 21 14 1 0 0 0 0 0 0 0 0 0 0 0 113 0 49 275 649 617 790 1355 1264 1107 974 787 776 736 709 770 734 648 685 670 723 713 584 602 550 482 350 379 564 865 872 853 735 55
5 0 35 13 0 0 0 0 0 0 0 0 0 0 27 228 68 228 351 618 742 1256 1194 971 802 747 705 649 560 551 512 499 521 582 596 604 565 481 327 216 299 504 702 791 806 802 697 182 75
0 0 20 61 0 0 0 0 0 0 0 0 0 0 0 182 87 253 484 693 1040 1287 1011 893 783 713 547 473 489 475 450 467 520 477 459 381 341 116 152 220 397 507 516 540 487 429 150 37 40